Regional Weather Roundup
Issued by NWS Cleveland, OH

Home | Current Version | Previous Version | Text Only | Print | Product List | Glossary Off
Versions: 1 2 3 4 5 6 7 8 9 10 11 12 13 14 15 16 17 18 19 20 21 22 23 24 25 26 27 28 29 30 31 32 33 34 35 36 37 38 39 40 41 42 43 44 45 46 47 48 49 50

000
ASUS41 KCLE 270800
RWRCLE
OHIO REGIONAL WEATHER ROUNDUP
NATIONAL WEATHER SERVICE WILMINGTON, OH
300 AM EST THU NOV 27 2014

NOTE: "FAIR" INDICATES FEW OR NO CLOUDS BELOW 12,000 FEET WITH NO
SIGNIFICANT WEATHER AND/OR OBSTRUCTIONS TO VISIBILITY.

OHZ001>008-015>018-024>027-034-035-043-044-270900-
   NORTHWEST OHIO

CITY           SKY/WX    TMP DP  RH WIND       PRES   REMARKS
DEFIANCE       CLOUDY    30  24  78 NW7       30.12R WCI  23
FINDLAY        CLOUDY    31  26  82 NW5       30.07R WCI  26
TOLEDO EXPRESS CLOUDY    29  24  82 NW6       30.09R WCI  23
TOLEDO METCALF CLOUDY    31  24  75 NW9       30.09S WCI  23
LIMA           CLOUDY    31  25  78 N6        30.07S WCI  25
$$

OHZ009>014-019>023-028>033-038-089-270900-
   NORTHEAST OHIO

CITY           SKY/WX    TMP DP  RH WIND       PRES   REMARKS
CLE-HOPKINS    LGT SNOW  32  30  92 CALM      30.04S
CLE-LAKEFRONT  CLOUDY    33  31  92 CALM      30.02S FOG
CUY CO. ARPT   NOT AVBL
LORAIN-ELYRIA  CLOUDY    33  32  96 NW3       30.03R FOG
ASHTABULA      FLURRIES  32  29  88 N5        30.01S WCI  27
AKRON-CANTON   CLOUDY    30  26  85 W3        30.00S FOG
WOOSTER        NOT AVBL
MANSFIELD      CLOUDY    30  28  92 NW6       30.02R FOG     WCI  24
YOUNGSTOWN     CLOUDY    31  26  82 W5        29.99R WCI  26
$$

OHZ042-051>053-060>062-070>072-077>081-270900-
  SOUTHWEST OHIO

CITY           SKY/WX    TMP DP  RH WIND       PRES   REMARKS
CINC-COVINGTON CLOUDY    29  21  72 NW9       30.08R WCI  20
CINC-LUNKEN    CLOUDY    29  23  78 VRB3      30.11R
HAMILTON       CLOUDY    29  24  82 NW6       30.11R WCI  23
DAYTON         NOT AVBL
WRIGHT-PAT AFB PTCLDY    28  23  80 N6        30.07R WCI  22
DAYTON GENERAL MOCLDY    27  23  85 N6        30.06R WCI  20
WILMINGTON     CLOUDY    27  23  85 N8        30.05R WCI  19
$$

OHZ036-037-039>041-045>050-054>059-063>069-073>076-082>088-270900-
  CENTRAL AND SOUTHEAST OHIO

CITY           SKY/WX    TMP DP  RH WIND       PRES   REMARKS
COLUMBUS       CLOUDY    32  26  78 N8        30.04S WCI  25
OSU AIRPORT    CLOUDY    31  26  82 N9        30.04S WCI  23
BOLTON FIELD   NOT AVBL
RICKENBACK AFB NOT AVBL
NEWARK         CLOUDY    33  26  75 NW5       30.03S WCI  29
MARION         CLOUDY    30  26  85 NW7       30.05R FOG     WCI  23
LANCASTER      CLOUDY    32  27  81 N5        30.04R WCI  27
ZANESVILLE     CLOUDY    31  24  75 NW6       30.03R WCI  25
NEW PHILLY     CLOUDY    32  26  78 CALM      30.03R
$$



USA.gov is the U.S. government's official web portal to all federal, state and local government web resources and services.